TimeAKDT,TemperatureF,Dew PointF,Humidity,Sea Level PressureIn,VisibilityMPH,Wind Direction,Wind SpeedMPH,Gust SpeedMPH,PrecipitationIn,Events,Conditions,WindDirDegrees,DateUTC
12:34 AM,42.8,39.2,87,29.87,10.0,ENE,11.5,23.0,N/A,,Overcast,70,2011-10-16 08:34:00
12:54 AM,44.1,39.0,82,29.87,10.0,ENE,12.7,21.9,N/A,,Overcast,70,2011-10-16 08:54:00
1:54 AM,43.0,37.9,82,29.88,10.0,East,9.2,-,N/A,,Overcast,80,2011-10-16 09:54:00
2:54 AM,43.0,39.0,86,29.88,10.0,East,10.4,18.4,N/A,,Overcast,90,2011-10-16 10:54:00
3:54 AM,44.1,39.0,82,29.88,10.0,ENE,9.2,17.3,N/A,,Overcast,70,2011-10-16 11:54:00
4:08 AM,42.8,39.2,87,29.87,10.0,East,10.4,17.3,N/A,,Overcast,80,2011-10-16 12:08:00
4:49 AM,42.8,39.2,87,29.88,10.0,East,9.2,18.4,N/A,,Overcast,80,2011-10-16 12:49:00
4:54 AM,44.1,39.0,82,29.88,10.0,East,8.1,16.1,N/A,,Overcast,80,2011-10-16 12:54:00
5:24 AM,44.6,39.2,81,29.88,10.0,East,6.9,-,N/A,,Overcast,80,2011-10-16 13:24:00
5:54 AM,44.1,39.0,82,29.88,10.0,ENE,9.2,16.1,N/A,,Overcast,70,2011-10-16 13:54:00
6:36 AM,44.6,39.2,81,29.88,10.0,East,9.2,-,N/A,,Overcast,90,2011-10-16 14:36:00
6:54 AM,44.1,39.0,82,29.88,10.0,Variable,5.8,18.4,N/A,,Overcast,0,2011-10-16 14:54:00
7:54 AM,44.1,39.9,85,29.89,10.0,ENE,6.9,-,N/A,,Overcast,70,2011-10-16 15:54:00
8:54 AM,44.1,39.0,82,29.90,10.0,ENE,8.1,-,N/A,,Overcast,70,2011-10-16 16:54:00
9:23 AM,44.6,39.2,81,29.89,10.0,ENE,10.4,16.1,0.00,Rain,Light Rain,70,2011-10-16 17:23:00
9:54 AM,44.1,39.9,85,29.91,10.0,East,10.4,-,0.00,,Overcast,80,2011-10-16 17:54:00
10:18 AM,44.6,39.2,81,29.90,10.0,ENE,6.9,-,N/A,,Overcast,70,2011-10-16 18:18:00
10:38 AM,44.6,39.2,81,29.90,10.0,East,9.2,-,N/A,,Overcast,80,2011-10-16 18:38:00
10:54 AM,45.0,39.9,82,29.91,10.0,East,8.1,-,N/A,,Overcast,80,2011-10-16 18:54:00
11:54 AM,45.0,41.0,86,29.91,10.0,ESE,6.9,-,N/A,,Overcast,120,2011-10-16 19:54:00
12:54 PM,46.0,39.9,79,29.92,10.0,ESE,6.9,-,N/A,,Overcast,110,2011-10-16 20:54:00
1:24 PM,48.2,41.0,76,29.92,10.0,ESE,10.4,-,N/A,,Overcast,120,2011-10-16 21:24:00
1:54 PM,46.9,42.1,83,29.92,10.0,SE,10.4,-,N/A,,Overcast,140,2011-10-16 21:54:00
2:40 PM,46.4,39.2,76,29.90,10.0,Variable,6.9,-,N/A,,Overcast,0,2011-10-16 22:40:00
2:54 PM,46.9,39.9,77,29.91,10.0,ESE,5.8,-,N/A,,Overcast,110,2011-10-16 22:54:00
3:54 PM,46.0,39.9,79,29.91,10.0,East,8.1,-,N/A,,Mostly Cloudy,90,2011-10-16 23:54:00
4:46 PM,46.4,41.0,81,29.90,10.0,East,5.8,-,N/A,,Overcast,100,2011-10-17 00:46:00
4:54 PM,46.0,41.0,83,29.91,10.0,East,5.8,-,N/A,,Overcast,80,2011-10-17 00:54:00
5:54 PM,45.0,39.9,82,29.91,10.0,ESE,5.8,-,N/A,,Overcast,120,2011-10-17 01:54:00
6:54 PM,44.1,41.0,89,29.91,10.0,East,3.5,-,N/A,,Overcast,90,2011-10-17 02:54:00
7:25 PM,44.6,39.2,81,29.90,10.0,East,4.6,-,N/A,,Overcast,80,2011-10-17 03:25:00
7:54 PM,44.1,41.0,89,29.91,10.0,East,3.5,-,N/A,,Overcast,80,2011-10-17 03:54:00
8:07 PM,42.8,39.2,87,29.91,10.0,East,4.6,-,N/A,,Overcast,100,2011-10-17 04:07:00
8:54 PM,44.1,41.0,89,29.92,10.0,ENE,3.5,-,N/A,,Overcast,60,2011-10-17 04:54:00
9:54 PM,43.0,41.0,93,29.92,10.0,ESE,3.5,-,N/A,,Overcast,120,2011-10-17 05:54:00
10:24 PM,42.8,41.0,93,29.92,10.0,Calm,Calm,-,N/A,,Overcast,0,2011-10-17 06:24:00
10:37 PM,42.8,41.0,93,29.92,10.0,Calm,Calm,-,N/A,,Overcast,0,2011-10-17 06:37:00
10:54 PM,43.0,41.0,93,29.93,10.0,Calm,Calm,-,N/A,,Overcast,0,2011-10-17 06:54:00
11:20 PM,42.8,41.0,93,29.92,10.0,Calm,Calm,-,N/A,,Overcast,0,2011-10-17 07:20:00
11:54 PM,42.1,41.0,96,29.93,10.0,Calm,Calm,-,N/A,,Overcast,0,2011-10-17 07:54:00